カタログに戻る

CZ-6A DEB

運用中SSO
NORAD 54529·DEBRIS·🇨🇳 China

打ち上げ Nov 11, 2022 から Taiyuan Satellite Launch Center

Loading…

次のパス (今後24時間)

TLE

最新Source: Space-Track

元期: Sep 14, 2026, 09:42 UTC

1 54529U 22151KH  26257.40425883  .00000055  00000-0  55973-4 0  9995
2 54529  98.8452 253.5942 0046478  78.9292 281.7100 14.09411297197249

AllMySatでCZ-6A DEBをリアルタイム追跡

Download on the App Store